THY1145 LTFM-HLLB

Flight info

Callsign THY1145
Flight time N/A
Altitude 39000
Route IVGUS1D/35L IVGUS UY226 BIG UG80 IMR UR32 REDRA DCT RIGRO UP32 RIPLI DCT MONUV UP32 ETILI DCT NEVIK DCT RASNO DCT REDFI REDFI1E
Aircraft B738/M-SDE2E3FGHIRWXY/LB1

Departure

Time 2026-05-04 14:55
Airport İstanbul Airport (LTFM)

Arrival

Time N/A
Airport Benina International Airport (HLLB)
Time Latitude Longitude Altitude Speed Heading
2026-05-04 14:15 41.26558 28.73792 333 ft 0 kts 269°
2026-05-04 14:47 41.26558 28.73793 333 ft 1 kts 269°
2026-05-04 14:47 41.26557 28.73825 331 ft 4 kts 280°
2026-05-04 14:47 41.26551 28.73860 328 ft 4 kts 278°
2026-05-04 14:48 41.26550 28.73872 329 ft 0 kts 270°
2026-05-04 14:49 41.26553 28.73870 329 ft 1 kts 304°
2026-05-04 14:50 41.26565 28.73870 331 ft 4 kts 358°
2026-05-04 14:50 41.26615 28.73875 330 ft 11 kts
2026-05-04 14:50 41.26706 28.73876 330 ft 14 kts 359°
2026-05-04 14:50 41.26801 28.73873 331 ft 13 kts 359°
2026-05-04 14:51 41.26892 28.73872 332 ft 13 kts 359°
2026-05-04 14:51 41.26988 28.73869 329 ft 13 kts 359°
2026-05-04 14:51 41.27051 28.73801 333 ft 14 kts 271°
2026-05-04 14:51 41.27049 28.73657 333 ft 18 kts 269°
2026-05-04 14:52 41.27046 28.73463 331 ft 22 kts 269°
2026-05-04 14:52 41.27044 28.73260 333 ft 22 kts 269°
2026-05-04 14:52 41.27042 28.73073 333 ft 19 kts 269°
2026-05-04 14:52 41.26980 28.72987 333 ft 15 kts 179°
2026-05-04 14:53 41.26873 28.72989 331 ft 17 kts 179°
2026-05-04 14:53 41.26742 28.72987 333 ft 17 kts 198°
2026-05-04 14:53 41.26716 28.72831 333 ft 20 kts 269°
2026-05-04 14:53 41.26713 28.72647 331 ft 20 kts 269°
2026-05-04 14:54 41.26738 28.72516 329 ft 12 kts 344°
2026-05-04 14:54 41.26822 28.72512 331 ft 13 kts 359°
2026-05-04 14:54 41.27118 28.72505 330 ft 78 kts 359°
2026-05-04 14:54 41.27880 28.72488 334 ft 139 kts 358°
2026-05-04 14:55 41.28942 28.72467 765 ft 156 kts 358°
2026-05-04 14:55 41.30034 28.72461 1616 ft 155 kts
2026-05-04 14:55 41.31085 28.72475 2589 ft 149 kts
2026-05-04 14:55 41.32206 28.72493 3009 ft 179 kts
2026-05-04 14:56 41.33547 28.72517 3260 ft 205 kts
2026-05-04 14:56 41.35040 28.72478 3561 ft 228 kts 351°
2026-05-04 14:56 41.36523 28.71591 4251 ft 241 kts 326°
2026-05-04 14:56 41.37629 28.69923 5303 ft 244 kts 304°
2026-05-04 14:57 41.38171 28.67726 6171 ft 260 kts 281°
2026-05-04 14:57 41.38182 28.65295 7064 ft 265 kts 276°
2026-05-04 14:57 41.38144 28.62806 7811 ft 273 kts 276°
2026-05-04 14:57 41.38097 28.60255 8621 ft 279 kts 274°
2026-05-04 14:58 41.37544 28.57693 9403 ft 303 kts 246°
2026-05-04 14:58 41.36033 28.55622 10115 ft 326 kts 214°
2026-05-04 14:58 41.33821 28.54633 10476 ft 351 kts 184°
2026-05-04 14:58 41.31314 28.54804 10703 ft 373 kts 172°
2026-05-04 14:59 41.28672 28.55113 11172 ft 386 kts 175°
2026-05-04 14:59 41.25988 28.54858 11946 ft 390 kts 195°
2026-05-04 14:59 41.21497 28.51018 13523 ft 390 kts 226°
2026-05-04 15:00 41.19516 28.48502 14119 ft 398 kts 226°
2026-05-04 15:00 41.17513 28.45936 14762 ft 401 kts 226°
2026-05-04 15:00 41.15496 28.43363 15464 ft 404 kts 225°
2026-05-04 15:01 41.11396 28.38187 16817 ft 410 kts 225°
2026-05-04 15:01 41.09311 28.35578 17398 ft 415 kts 224°
2026-05-04 15:01 41.07195 28.32938 17981 ft 420 kts 224°
2026-05-04 15:01 41.05058 28.30280 18591 ft 423 kts 224°
2026-05-04 15:02 41.02900 28.27601 19118 ft 427 kts 224°
2026-05-04 15:02 41.00722 28.24899 19619 ft 432 kts 224°
2026-05-04 15:02 40.98518 28.22169 20117 ft 436 kts 224°
2026-05-04 15:02 40.96287 28.19407 20618 ft 441 kts 224°
2026-05-04 15:03 40.94038 28.16625 21119 ft 445 kts 224°
2026-05-04 15:03 40.91765 28.13817 21620 ft 449 kts 224°
2026-05-04 15:03 40.89475 28.10989 22103 ft 453 kts 224°
2026-05-04 15:03 40.87162 28.08137 22572 ft 457 kts 224°
2026-05-04 15:04 40.84829 28.05263 23038 ft 460 kts 224°
2026-05-04 15:04 40.82483 28.02375 23538 ft 463 kts 224°
2026-05-04 15:04 40.80116 27.99465 23934 ft 466 kts 224°
2026-05-04 15:04 40.77736 27.96543 24345 ft 468 kts 224°
2026-05-04 15:05 40.75349 27.93613 24775 ft 470 kts 224°
2026-05-04 15:05 40.72944 27.90666 25179 ft 472 kts 223°
2026-05-04 15:05 40.70532 27.87712 25579 ft 475 kts 223°
2026-05-04 15:05 40.68110 27.84750 26032 ft 475 kts 223°
2026-05-04 15:06 40.65684 27.81785 26443 ft 477 kts 223°
2026-05-04 15:06 40.63281 27.78851 26786 ft 479 kts 223°
2026-05-04 15:06 40.60827 27.75859 27123 ft 482 kts 223°
2026-05-04 15:07 40.55882 27.69838 27841 ft 486 kts 223°
2026-05-04 15:07 40.53396 27.66816 28198 ft 488 kts 223°
2026-05-04 15:07 40.50893 27.63776 28536 ft 490 kts 223°
2026-05-04 15:07 40.48380 27.60728 28857 ft 493 kts 223°
2026-05-04 15:08 40.45861 27.57675 29190 ft 495 kts 223°
2026-05-04 15:08 40.43326 27.54607 29500 ft 497 kts 223°
2026-05-04 15:08 40.40778 27.51525 29799 ft 499 kts 223°
2026-05-04 15:08 40.38220 27.48433 30086 ft 501 kts 223°
2026-05-04 15:09 40.35654 27.45336 30331 ft 502 kts 223°
2026-05-04 15:09 40.33088 27.42243 30694 ft 500 kts 223°
2026-05-04 15:09 40.30393 27.39382 31081 ft 498 kts 213°
2026-05-04 15:10 40.24134 27.35736 31877 ft 490 kts 193°
2026-05-04 15:10 40.20789 27.34951 32182 ft 488 kts 185°
2026-05-04 15:10 40.14061 27.33821 32830 ft 486 kts 185°
2026-05-04 15:11 40.10718 27.33232 33222 ft 484 kts 186°
2026-05-04 15:11 40.07396 27.32616 33601 ft 482 kts 186°
2026-05-04 15:11 40.04081 27.31985 33914 ft 481 kts 186°
2026-05-04 15:11 40.00766 27.31351 34165 ft 481 kts 186°
2026-05-04 15:12 39.97454 27.30723 34411 ft 480 kts 186°
2026-05-04 15:12 39.94146 27.30127 34659 ft 480 kts 186°
2026-05-04 15:12 39.90838 27.29546 34892 ft 480 kts 186°
2026-05-04 15:12 39.87529 27.28935 35107 ft 480 kts 187°
2026-05-04 15:13 39.84222 27.28293 35322 ft 481 kts 188°
2026-05-04 15:13 39.80918 27.27650 35550 ft 480 kts 187°
2026-05-04 15:13 39.77652 27.27055 35792 ft 479 kts 187°
2026-05-04 15:13 39.74349 27.26495 36034 ft 479 kts 187°
2026-05-04 15:14 39.71042 27.25950 36252 ft 479 kts 187°
2026-05-04 15:14 39.67740 27.25405 36479 ft 479 kts 187°
2026-05-04 15:14 39.64438 27.24855 36690 ft 478 kts 187°
2026-05-04 15:14 39.61144 27.24301 36916 ft 477 kts 188°
2026-05-04 15:15 39.57852 27.23744 37144 ft 477 kts 188°
2026-05-04 15:15 39.54568 27.23188 37340 ft 476 kts 188°
2026-05-04 15:15 39.51285 27.22634 37531 ft 476 kts 188°
2026-05-04 15:16 39.44726 27.21483 37948 ft 475 kts 189°